Starlink 31937

operational
NORAD ID: 59871 Int'l Des: 2024-098 Owner: SPXS Country: US Constellation: starlink
LEOCIRCULAR

Starlink 31937について

説明を読み込み中...

リアルタイム位置

3D地球を読み込み中...

次回通過

高度履歴

Altitude vs Time

uPlot chart will show altitude changes over time

軌道要素

1 59871U 24098P 25256.53890699 .00000480 00000-0 26974-4 0 9996
2 59871 43.0013 191.4958 0000913 293.1696 66.9060 15.27580419 74830
Epoch: Sep 13, 2025 • Age: 46 hours

現在のステータス

高度 491.0 km
速度 7.62 km/s
衛星直下点 -30.29°S, 127.11°W
打ち上げ日 May 24, 2024
運用期間 1.3 years
タイプ internet

技術仕様

分類 Payload
質量 730.00 kg
乾燥質量 700.00 kg
総質量 730.00 kg
長さ 0.30 m
直径 4.10 m
スパン 29.00 m
形状 Box + pan
製造者 SPXS
バスタイプ Starlink V2M
フェーズステータス In Orbit
所有者/国 SPXS/US

大規模コンステレーション

Loading constellations...